Starlink 32426

operational
NORAD ID: 61681 Int'l Des: 2024-193 Owner: SPXS Country: US Constellation: starlink
LEOCIRCULAR

Starlink 32426について

説明を読み込み中...

リアルタイム位置

3D地球を読み込み中...

次回通過

高度履歴

Altitude vs Time

uPlot chart will show altitude changes over time

軌道要素

1 61681U 24193W 25306.46505096 .00005581 00000-0 20050-3 0 9991
2 61681 53.1613 322.2540 0001147 72.8657 287.2469 15.30183136 57044
Epoch: Nov 2, 2025 • Age: 13 hours

現在のステータス

高度 477.3 km
速度 7.63 km/s
衛星直下点 35.83°N, 48.76°W
打ち上げ日 Oct 26, 2024
運用期間 1 years
タイプ internet

技術仕様

分類 Payload
質量 730.00 kg
乾燥質量 700.00 kg
総質量 730.00 kg
長さ 0.30 m
直径 4.10 m
スパン 29.00 m
形状 Box + pan
製造者 SPXS
バスタイプ Starlink V2M
フェーズステータス In Orbit
所有者/国 SPXS/US

大規模コンステレーション

Loading constellations...